Wind_Gust
13 20 17 19 20 20 23 25 30 31 34 31 31 32 35 30 34 22 18 16 23 17 15 17 19 19 26 23 27 24 24 16 17 18 16 14 12 15 13 13 11 13 13 13 13 14 15 15 14 15 15 16 16 16 16 15 16 16 15 14 14 14 13 13 13 12 12 12 12 12 11 11 11 12 12 12 12 13 13 14 14 14 13 12 11 10 10 9 8 7 7 8 8 9 11 12 12
20 19 17 17 22 23 28 25 33 26 29 30 32 27 29 27 25 26 23 21 22 19 17 14 17 22 25 23 20 21 24 20 18 21 17 16 16 16 13 13 14 14 13 14 13 15 17 18 15 15 16 17 16 16 16 16 15 15 14 14 13 13 13 13 12 12 12 12 12 12 11 11 11 12 12 12 13 13 13 14 14 14 14 14 12 10 10 10 9 8 7 8 8 9 10 12 12
20 19 20 19 22 29 20 31 35 28 30 29 27 32 26 29 21 19 20 14 16 16 11 15 14 22 24 19 24 20 17 14 18 18 19 15 14 15 12 13 13 13 14 14 14 15 17 17 15 16 16 16 17 16 16 15 15 14 14 14 13 14 13 12 12 12 12 11 11 11 11 12 12 11 12 12 13 13 13 13 14 14 14 15 14 14 11 11 10 11 15 13 11 11 10 12 13
25 22 23 23 27 26 28 28 29 30 29 28 28 26 33 26 18 16 19 17 16 13 11 17 15 21 18 19 20 24 17 14 15 13 18 12 15 12 13 12 12 12 13 17 17 18 16 17 16 17 17 16 16 16 16 15 15 15 15 14 14 14 13 13 12 12 12 11 11 11 11 12 12 12 11 12 12 12 12 13 14 14 15 15 14 14 12 11 12 11 12 13 11 11 10 12 12
21 19 25 28 26 30 30 28 28 30 32 29 27 29 33 21 20 15 18 14 14 10 11 17 26 24 27 25 19 13 14 15 15 14 16 15 12 12 12 12 14 17 16 15 16 16 18 17 16 15 15 16 16 16 15 15 15 14 15 14 14 14 14 13 13 13 12 12 11 11 11 11 11 11 11 11 11 12 12 12 13 14 13 13 13 14 13 13 13 15 12 14 14 11 9 11 11
22 21 22 26 33 19 34 29 28 30 28 33 28 29 29 29 17 22 16 11 14 11 13 21 20 18 23 21 22 15 14 9 11 14 15 13 12 11 10 13 14 15 14 16 17 18 19 16 15 14 15 15 15 14 15 15 15 14 15 15 14 15 14 14 15 15 14 13 13 12 12 11 11 11 11 11 11 11 12 12 12 12 13 14 14 14 15 15 11 11 13 14 11 9 10 9 10
26 22 27 24 29 28 26 29 29 27 31 24 32 27 26 26 22 19 18 17 12 15 17 17 26 25 23 20 22 23 16 10 11 15 14 14 12 12 13 12 15 17 17 18 18 20 20 15 15 15 15 15 15 15 15 15 15 15 15 15 15 15 15 15 15 15 15 15 14 13 12 12 12 11 11 11 11 11 12 12 12 12 12 12 13 13 14 13 13 12 12 12 9 9 9 8 9
22 26 25 28 26 29 28 28 32 33 24 25 27 23 21 18 19 24 29 22 16 15 20 25 26 29 17 12 15 15 17 21 19 19 18 14 12 12 13 15 16 16 17 17 18 18 17 17 15 15 15 15 15 15 15 14 15 15 15 15 16 16 16 16 15 16 16 15 15 15 14 14 13 12 11 11 11 11 11 12 12 12 12 11 12 11 12 12 13 13 11 11 10 10 8 7 8
23 26 18 27 30 31 28 30 33 29 18 21 19 16 16 19 22 19 18 22 19 22 36 22 17 21 20 19 19 15 18 16 17 17 15 14 13 15 15 14 17 17 17 18 17 16 17 14 14 14 13 14 13 13 13 13 13 13 14 14 15 15 15 15 16 16 15 15 15 15 15 14 14 13 12 11 11 11 11 11 11 12 12 11 11 11 11 11 11 12 11 10 11 9 9 7 8
22 24 24 29 22 30 27 28 33 24 24 23 18 22 14 20 22 19 18 19 19 22 29 25 24 22 19 20 20 13 15 12 14 16 16 14 14 15 14 15 15 16 17 17 16 16 16 13 12 12 12 12 12 12 12 12 13 13 13 13 14 14 15 15 15 15 15 15 15 15 14 14 14 14 13 12 11 11 10 10 11 12 11 11 12 12 11 10 10 10 10 9 8 8 7 8 8
25 26 25 28 24 26 27 28 28 21 26 28 25 32 22 23 20 20 18 21 20 19 20 31 28 22 19 18 18 14 14 13 14 16 15 14 14 15 16 14 14 14 17 18 16 15 15 14 16 13 12 12 12 12 13 13 13 13 13 14 14 14 14 15 15 15 15 15 15 15 15 14 13 13 12 12 11 11 10 10 11 11 11 11 12 11 11 10 10 10 9 9 8 7 6 7 8
24 26 26 29 25 28 25 29 31 24 29 25 21 29 31 22 26 21 20 17 19 22 23 20 17 20 18 19 15 15 14 13 14 15 14 14 17 15 16 16 15 14 15 19 19 17 16 16 15 15 13 12 13 13 13 13 13 13 13 14 15 14 15 15 15 15 15 15 16 15 14 14 12 12 11 11 10 10 10 10 11 10 11 11 11 10 10 10 10 9 8 8 7 7 6 6 7
25 23 23 25 25 22 28 35 24 30 24 25 28 28 23 22 22 19 19 16 24 18 25 27 20 20 16 15 18 16 15 14 14 15 15 16 16 17 15 15 14 14 14 14 16 14 14 14 13 14 13 15 13 13 12 13 12 12 12 12 14 14 15 15 15 15 15 16 16 14 14 13 13 11 10 9 10 10 10 9 10 11 10 10 10 10 9 9 9 9 7 7 8 7 6 6 6
23 25 27 24 24 26 27 29 27 27 24 21 20 18 18 22 19 17 20 20 18 18 17 22 27 26 21 22 18 16 17 14 15 15 16 14 15 17 15 17 15 15 13 13 14 13 14 12 12 12 12 11 13 13 12 13 12 11 11 13 14 15 16 16 16 14 14 14 14 14 13 12 13 13 10 8 8 8 8 8 8 10 10 9 9 9 8 8 9 9 8 7 7 7 7 6 7
23 30 21 24 24 29 23 28 24 24 22 21 15 16 21 19 18 22 22 20 20 22 24 26 20 15 18 18 17 17 18 16 15 15 17 17 18 18 16 17 15 13 13 14 13 13 13 12 12 12 10 11 11 11 11 15 12 12 12 11 12 13 14 14 14 13 16 14 15 13 13 13 14 16 11 7 7 8 10 8 8 8 9 8 8 8 8 8 9 9 8 8 7 8 8 7 8
27 26 24 20 20 26 29 24 28 28 23 25 19 16 15 20 26 19 22 21 20 19 20 22 21 18 18 14 18 20 18 17 18 17 18 18 18 17 18 17 15 13 13 13 13 13 13 13 11 13 12 11 11 12 12 12 11 10 11 11 12 12 12 13 13 13 16 14 14 13 14 14 13 10 13 11 9 5 8 11 9 9 9 8 8 8 8 9 8 8 7 7 7 8 9 9 9
25 32 17 23 19 22 24 26 28 22 24 22 24 20 15 16 22 20 21 27 24 20 22 22 18 18 19 22 22 22 19 17 17 16 15 17 15 16 16 15 16 15 13 13 12 13 12 12 11 13 11 11 11 11 10 10 11 10 9 9 9 10 12 12 12 12 13 12 12 12 13 13 12 11 14 12 6 10 10 9 9 12 10 9 8 9 7 7 8 8 7 7 8 8 10 10 11
25 23 19 20 20 21 27 24 19 25 20 24 27 26 27 18 13 32 25 25 23 21 24 25 23 23 23 24 22 20 19 17 17 16 15 15 14 15 14 14 14 14 15 16 13 11 12 12 12 11 12 10 10 10 10 10 12 14 14 15 13 14 12 12 14 16 14 15 14 14 13 13 13 11 12 10 10 10 11 9 9 9 8 8 8 7 7 8 8 9 8 8 9 11 11 17 13
26 18 21 22 20 21 18 20 23 23 24 19 26 28 18 22 15 26 23 16 24 25 23 22 24 22 21 23 21 19 18 17 15 13 13 12 13 13 12 14 14 12 13 15 15 11 12 14 12 12 12 11 11 10 10 11 19 19 18 14 14 13 14 14 15 16 18 19 16 17 14 14 13 12 11 14 13 5 11 7 8 8 7 7 8 7 8 10 9 10 11 12 11 14 19 19 19
27 24 23 21 19 21 19 19 19 20 26 27 19 19 24 17 18 22 20 19 26 26 25 22 22 22 21 21 19 18 17 16 14 13 15 13 13 12 12 12 13 12 11 13 14 12 12 13 11 11 11 10 12 12 11 17 20 17 14 15 15 15 15 16 15 15 18 18 19 17 14 15 13 11 11 13 11 11 11 10 10 8 10 10 9 10 11 11 10 11 13 14 12 13 16 19 16
25 21 22 23 25 22 23 24 21 25 30 26 28 18 27 24 25 24 22 22 21 28 25 24 22 23 22 22 20 19 17 16 15 13 13 13 12 12 11 10 11 11 11 11 12 12 12 10 10 10 11 10 12 15 15 17 17 16 15 15 17 16 16 16 16 16 17 19 19 19 19 15 18 14 14 15 14 11 11 10 9 12 13 15 9 14 12 13 13 12 14 16 17 11 14 18 21
26 24 24 22 22 21 29 33 30 25 30 20 22 24 27 28 27 24 25 14 19 25 24 25 24 23 23 22 20 19 17 16 14 14 14 13 12 11 11 12 11 10 10 11 12 12 11 12 10 10 8 10 12 12 13 15 15 14 13 16 16 15 16 16 16 16 18 20 19 19 16 14 14 15 13 16 19 12 11 12 11 11 11 10 10 11 11 12 10 13 12 13 12 13 17 16 13
25 21 22 24 24 21 36 38 31 27 28 25 24 27 28 25 25 26 23 21 24 27 24 24 21 22 21 20 20 18 16 15 14 13 13 12 12 11 10 10 10 10 10 11 11 11 11 9 9 8 9 10 13 13 15 13 12 12 14 14 18 17 15 16 17 16 17 18 18 18 17 17 15 14 14 16 16 13 11 12 12 12 11 12 11 12 9 9 10 10 11 13 14 12 22 16 14
21 28 19 22 19 20 24 30 32 32 21 23 28 25 23 24 24 25 23 25 26 23 22 22 20 20 20 19 17 16 15 14 14 13 13 12 11 10 10 9 9 8 9 11 11 11 11 10 9 8 9 10 11 11 11 16 13 13 16 15 17 16 16 17 16 15 15 18 17 18 17 17 16 16 15 15 13 12 13 12 13 12 11 11 12 12 16 13 12 10 10 10 10 11 12 12 15
21 25 21 22 21 23 25 20 21 18 20 21 22 23 22 22 23 19 23 23 23 20 21 20 19 19 18 17 17 16 16 15 14 13 11 12 10 11 10 9 9 8 9 10 11 11 12 11 10 9 9 10 12 12 14 16 16 12 12 12 16 14 16 16 15 14 16 18 18 16 16 16 16 17 17 18 15 15 15 14 13 12 11 13 12 12 12 14 10 16 11 10 9 10 10 11 12
26 24 21 21 21 20 20 20 19 18 23 21 22 23 22 23 23 24 19 18 19 20 19 19 17 17 16 15 15 14 15 15 14 14 12 11 10 10 11 11 11 12 10 11 11 11 12 12 10 9 8 13 11 10 15 14 11 11 12 10 13 13 14 14 13 16 16 17 19 17 16 16 16 16 16 17 17 16 14 14 14 13 12 13 13 12 12 11 11 15 13 12 13 10 15 11 12
20 22 22 22 22 21 18 20 20 19 20 19 23 21 23 20 19 24 15 18 18 18 19 18 16 16 16 17 15 16 15 13 13 12 12 11 11 12 11 11 12 11 12 13 12 11 13 12 10 10 8 10 10 9 10 10 12 11 10 10 11 13 13 13 15 15 16 17 18 16 15 15 15 15 16 15 14 13 14 13 14 14 13 13 13 13 11 11 11 12 11 12 12 13 12 10 11
22 24 23 24 24 22 22 21 21 20 22 18 22 21 19 17 19 21 19 16 13 16 15 16 15 17 16 16 15 14 14 14 14 11 12 11 11 11 11 12 11 11 12 12 11 11 13 11 11 9 8 9 10 7 8 8 10 10 10 9 11 12 11 14 15 16 14 17 17 15 14 16 15 15 15 14 14 13 15 15 14 13 13 13 15 13 11 11 11 12 12 11 10 11 11 11 10
21 21 27 25 23 27 18 21 22 19 22 17 19 23 22 18 21 19 18 15 15 14 15 14 14 13 16 15 15 15 14 14 14 14 13 12 10 10 10 10 11 11 10 11 11 12 13 13 11 11 10 9 8 8 8 13 11 15 13 9 11 11 12 13 15 16 15 16 15 16 16 15 14 15 14 15 16 15 15 13 14 13 15 15 13 13 12 11 11 11 11 11 11 12 12 11 12
23 20 23 28 25 26 20 18 19 19 18 14 21 21 22 22 19 19 19 18 17 17 16 17 16 14 15 13 14 14 13 13 14 13 12 12 12 10 9 9 9 10 10 12 12 14 14 13 11 11 9 8 8 7 8 13 10 12 9 8 9 9 12 12 13 14 16 16 16 17 16 16 15 15 15 14 13 13 13 14 16 14 14 13 12 14 13 11 12 12 13 12 12 12 11 11 11
24 22 20 24 23 26 19 19 18 21 19 14 17 18 22 20 20 18 18 18 17 17 16 16 16 14 15 15 13 13 12 13 11 11 11 13 12 13 10 9 11 10 9 11 14 14 14 13 12 11 9 7 9 9 9 12 9 11 13 10 9 9 10 11 12 13 15 16 17 18 16 16 16 15 14 14 13 13 12 14 15 16 16 14 14 14 13 11 12 13 14 13 12 11 12 11 11
24 20 25 22 23 24 24 20 17 21 22 19 18 24 22 19 18 19 17 17 17 16 16 15 15 15 13 14 14 12 11 12 13 13 13 12 13 12 10 9 9 11 10 11 13 14 15 13 13 11 9 8 9 8 7 8 10 9 11 10 8 9 9 10 12 14 14 16 16 17 17 16 16 15 15 13 12 13 13 13 14 16 18 16 13 13 14 14 16 13 13 13 12 12 12 11 11
26 26 23 23 21 24 24 23 25 20 17 19 19 24 22 21 19 18 17 17 16 14 16 14 15 14 13 12 15 14 13 13 14 14 13 10 13 11 10 10 10 10 11 12 13 14 14 14 14 10 8 9 9 8 8 8 8 9 9 9 9 7 8 8 10 14 14 14 15 18 16 16 16 16 16 14 11 12 12 13 16 15 16 18 13 15 12 12 14 15 14 14 14 15 13 11 10
26 29 25 21 25 23 23 25 24 20 18 22 19 24 21 20 19 18 16 15 13 14 14 13 13 16 12 15 12 13 13 12 12 10 14 11 14 11 10 10 10 9 10 12 13 14 13 14 13 11 8 9 9 9 9 9 9 9 8 10 9 7 7 8 8 9 12 15 14 16 15 16 16 16 16 15 13 15 13 14 13 14 14 14 13 16 13 13 11 14 14 13 15 15 14 13 11
22 18 22 28 31 18 22 23 24 25 26 19 21 22 22 20 19 17 16 14 13 14 15 15 15 13 13 12 13 12 15 10 12 10 16 12 12 12 12 11 11 10 11 13 14 14 13 13 13 12 10 9 10 10 9 9 9 10 9 8 8 8 7 7 9 8 10 10 12 13 14 14 16 16 17 16 14 14 13 13 13 12 13 13 13 15 14 14 13 13 13 12 11 15 13 12 12
24 25 22 20 21 25 24 31 32 27 17 26 18 23 22 20 19 18 17 14 13 16 13 14 17 14 11 10 10 12 15 14 13 10 13 14 12 13 12 12 12 11 11 12 14 14 13 12 12 12 11 10 10 10 11 11 10 9 8 7 8 10 9 7 7 8 7 10 10 11 13 13 16 16 16 17 15 13 13 13 13 12 11 13 13 13 13 14 14 12 13 12 15 14 12 14 13
16 24 18 19 22 22 23 24 26 27 23 19 20 21 20 19 18 18 18 15 14 16 13 16 15 16 16 14 12 14 12 13 14 10 8 11 15 13 12 12 12 11 12 13 14 14 13 14 12 12 11 11 11 11 11 10 9 8 7 8 9 10 7 7 8 7 8 10 9 10 11 13 13 15 17 17 16 13 13 13 13 14 13 13 13 12 12 12 12 12 13 15 13 12 13 15 13
32 23 17 21 18 22 18 20 22 19 18 20 18 19 20 19 18 17 17 15 16 14 15 13 14 12 17 13 14 14 11 14 13 10 10 10 11 10 11 13 13 14 14 14 14 13 12 13 12 11 11 11 11 11 10 9 10 9 10 9 9 8 6 7 8 8 8 8 8 9 9 11 12 14 14 15 16 17 14 13 12 14 13 14 12 13 12 12 12 13 14 19 18 14 13 16 15
30 22 23 22 25 22 19 18 15 24 19 21 15 20 20 19 20 17 16 15 15 13 15 15 16 15 16 16 16 12 13 13 11 11 10 11 11 12 13 12 13 13 13 14 12 12 12 13 12 10 10 11 11 11 10 9 9 8 10 9 10 10 7 8 8 8 8 8 8 7 8 9 12 13 15 13 15 16 14 12 12 12 13 13 13 14 13 12 12 13 13 14 21 19 13 14 15
26 26 22 21 28 22 21 20 12 20 28 25 24 19 20 18 16 13 14 18 17 15 15 15 16 13 15 17 15 13 14 14 12 11 11 11 12 12 12 13 13 13 13 13 13 12 12 13 11 11 10 10 10 10 11 9 8 8 9 10 9 10 11 8 9 8 7 8 8 7 8 8 10 12 14 15 16 15 13 14 12 13 13 13 12 14 14 15 13 12 14 13 16 17 19 13 12
27 26 17 16 22 24 19 23 23 23 18 19 17 19 21 18 20 19 15 17 19 16 15 13 16 17 14 15 13 10 15 13 13 12 10 11 11 12 13 12 13 14 14 13 13 13 12 12 11 11 9 10 10 9 11 10 9 10 11 10 10 10 10 9 8 7 7 6 8 8 7 8 9 11 12 13 16 15 13 13 13 13 13 13 13 14 13 14 14 16 15 13 14 15 19 18 11
15 14 13 13 13 18 24 29 24 21 19 29 19 19 23 19 17 19 20 17 16 16 16 15 14 17 14 16 16 13 14 13 13 11 11 10 9 10 11 12 13 14 14 12 12 13 11 11 11 10 10 9 10 10 10 11 11 11 10 10 10 9 9 8 8 8 7 7 7 8 8 8 8 10 14 12 15 14 13 12 12 13 13 13 14 14 14 12 14 14 15 15 14 12 17 13 15
20 21 13 13 9 13 27 31 31 23 15 28 33 18 23 16 19 16 18 17 15 13 12 17 14 17 15 18 17 14 18 14 12 11 11 11 11 11 11 12 13 13 13 13 13 12 11 10 10 10 10 10 10 10 10 11 11 11 11 11 10 9 10 8 8 8 9 8 7 7 8 7 8 8 14 13 11 12 13 11 11 13 13 12 11 12 13 13 15 15 16 14 14 14 15 13 12
19 16 12 12 9 12 27 30 33 16 22 19 29 29 18 19 20 15 15 15 16 14 13 12 17 14 11 18 15 16 19 13 16 13 11 11 10 9 11 12 12 12 13 14 14 13 12 11 11 10 10 10 10 10 11 12 11 11 11 11 10 10 10 10 8 8 8 8 9 8 8 7 7 8 10 10 10 14 12 12 12 12 12 12 13 13 13 14 15 14 13 13 13 13 13 15 13
20 12 14 12 15 12 29 27 24 31 26 26 26 30 20 17 19 14 16 20 17 17 14 15 14 14 12 10 16 14 20 15 18 17 12 12 11 11 10 11 11 13 12 14 15 13 12 12 11 11 11 11 10 11 11 11 11 11 11 11 10 10 10 9 9 8 9 8 9 9 8 8 7 7 8 8 7 10 9 11 11 12 12 13 13 13 12 13 13 13 13 13 13 13 12 13 12
19 13 12 11 11 14 16 22 17 26 23 16 22 29 17 18 16 22 16 16 18 16 15 14 12 13 14 13 14 12 17 11 19 16 13 12 12 12 10 11 13 13 12 12 11 13 13 12 12 12 12 12 11 11 11 11 11 12 12 11 12 11 10 9 9 9 9 9 10 9 8 7 8 9 7 7 10 12 9 9 10 11 11 11 11 11 11 11 12 12 12 12 12 12 12 13 12
13 12 18 14 14 13 12 16 26 18 13 20 26 29 28 18 20 21 15 19 15 17 16 15 14 14 15 11 12 14 17 16 18 13 16 14 13 13 12 12 12 12 12 12 12 14 13 12 11 12 11 11 11 11 12 12 11 12 13 11 12 12 11 10 10 10 9 9 10 9 9 7 7 8 7 7 7 8 10 8 8 9 10 9 10 9 10 11 11 11 11 11 12 12 12 11 12
14 20 15 14 13 15 18 20 15 15 11 23 26 29 29 26 20 21 19 14 13 13 15 14 17 17 15 12 17 15 16 16 16 20 19 16 15 13 12 12 12 13 12 13 12 11 12 12 12 12 12 11 11 11 11 12 12 13 12 12 12 12 12 12 11 11 11 11 10 10 9 9 7 7 7 7 8 8 8 7 11 7 11 9 9 8 9 11 11 11 11 11 11 10 11 12 12
18 16 17 21 21 19 14 14 9 10 15 28 34 29 22 21 17 19 17 17 14 16 18 16 14 15 10 15 10 13 11 12 21 23 20 15 14 13 12 11 12 12 12 12 11 10 10 11 11 11 11 11 10 10 10 11 12 12 12 12 12 12 12 13 12 11 11 11 10 10 10 10 9 8 7 7 7 8 9 8 7 7 6 7 7 9 9 8 9 8 9 9 11 11 12 11 12
17 17 16 17 18 18 12 11 14 14 15 15 23 28 22 22 18 16 19 16 16 13 16 17 17 12 9 16 13 14 11 14 23 22 19 16 14 12 11 11 12 12 11 11 10 9 9 9 10 11 10 10 10 10 10 11 11 11 11 11 11 11 11 11 12 12 11 11 11 11 11 10 10 9 8 8 7 7 10 9 9 8 7 9 7 7 8 8 7 9 8 9 9 9 9 10 10
15 15 17 16 20 18 8 16 9 11 14 16 12 17 15 17 18 18 19 16 14 17 20 16 14 14 10 10 14 17 12 17 18 19 17 14 13 11 11 11 11 11 11 11 11 10 9 8 9 9 10 9 10 9 10 11 11 10 11 11 11 11 11 12 12 12 12 12 11 12 12 11 11 10 10 9 9 9 8 10 9 9 9 8 8 8 8 8 6 7 7 7 7 8 8 8 8
20 15 16 17 17 15 17 19 18 12 14 12 16 17 22 24 17 17 15 16 16 17 19 14 14 15 11 12 14 13 14 18 21 18 17 15 13 12 12 12 12 12 12 11 11 10 9 8 7 7 7 7 9 9 10 10 10 9 9 10 10 10 11 11 12 12 12 12 13 13 12 11 12 11 10 11 10 10 9 10 11 11 10 10 10 10 10 12 7 7 8 6 8 7 6 8 6
16 19 19 19 15 19 9 10 9 8 16 9 5 11 17 20 18 18 16 17 17 15 16 16 15 15 10 14 16 16 15 14 15 19 19 14 14 12 13 13 13 13 13 11 10 9 8 7 7 7 7 7 7 8 9 9 8 8 8 9 9 9 11 11 12 12 12 12 12 12 12 13 12 12 12 12 12 11 11 11 11 11 11 11 11 11 11 11 10 9 10 9 8 9 8 10 8
22 18 18 13 11 16 13 10 14 12 11 12 13 11 19 16 16 17 17 15 17 16 17 17 14 14 14 15 15 17 16 14 16 18 16 15 14 14 14 14 14 12 12 11 9 9 8 7 7 8 7 7 8 8 8 8 8 9 8 9 9 9 10 10 10 12 12 12 12 13 12 13 13 13 13 13 12 12 11 11 12 12 12 12 12 12 11 12 11 11 10 11 10 9 9 9 9
19 19 14 21 12 16 18 11 8 10 7 7 12 13 13 19 18 18 17 15 14 13 15 14 15 14 13 15 15 13 12 11 11 15 16 15 13 14 12 12 14 11 10 12 14 9 8 8 8 8 8 8 8 7 8 8 8 9 9 8 9 10 10 10 10 10 10 12 13 12 13 13 13 13 13 13 13 14 13 13 12 13 13 14 14 13 13 13 12 12 12 12 11 11 11 10 9
19 13 19 13 17 22 21 12 15 18 7 11 11 18 12 20 21 11 14 15 11 12 12 13 14 13 14 16 17 17 13 10 13 15 15 15 14 14 15 11 15 13 14 14 11 11 11 9 9 9 9 9 9 9 9 9 9 9 10 10 9 11 11 11 10 10 11 12 11 12 12 11 11 12 12 13 14 14 14 14 14 15 15 14 14 14 14 14 13 13 13 13 12 11 12 12 11
16 16 19 24 17 15 18 14 16 14 12 13 11 13 16 18 15 17 16 12 9 10 11 10 10 13 13 14 14 13 12 10 10 11 16 13 11 12 13 10 14 14 14 10 11 9 11 11 10 10 10 10 10 9 10 10 10 10 10 11 11 10 11 12 12 11 12 12 12 12 12 12 12 12 12 13 14 15 15 15 15 15 15 15 14 15 15 14 14 14 14 13 14 14 14 13 12
18 19 17 18 16 16 15 11 15 9 17 11 13 13 19 19 16 16 14 10 12 12 14 9 9 15 15 15 12 12 13 11 10 8 13 14 12 11 13 12 10 11 12 10 13 11 11 10 13 14 12 12 11 11 11 11 11 11 11 11 12 11 12 12 12 12 13 14 13 13 12 13 13 15 14 15 16 15 15 14 15 16 16 17 16 16 16 17 16 15 15 15 14 15 15 14 13
Wind_Speed
7 6 7 7 7 7 7 7 8 7 7 11 11 11 11 17 17 12 6 5 4 6 7 10 11 10 12 11 16 15 13 6 3 3 2 2 5 7 8 8 6 4 4 2 4 2 6 10 11 12 12 12 12 12 12 12 12 12 11 11 10 10 10 10 10 10 9 9 9 9 8 8 9 9 9 9 9 10 10 10 10 10 10 9 8 7 6 6 5 5 5 4 5 5 6 6 2
7 7 8 7 8 6 7 7 7 7 8 10 12 12 14 15 15 15 8 12 8 3 9 7 9 14 17 15 9 13 14 12 10 9 6 5 6 8 7 6 6 5 2 1 3 3 6 9 11 12 11 12 12 12 12 12 11 11 11 10 10 10 10 10 9 9 9 9 9 9 8 9 9 9 9 9 9 10 10 11 11 11 10 10 8 7 7 6 6 5 4 6 6 7 6 3 1
8 8 7 7 6 8 4 8 9 9 9 11 10 13 14 16 12 11 9 7 9 10 3 7 7 12 9 5 12 7 6 9 9 10 7 6 5 3 6 6 6 7 5 3 3 3 5 9 11 11 11 11 11 11 12 11 11 11 11 10 10 11 10 10 9 9 9 9 9 8 8 9 9 9 9 9 9 10 10 10 10 10 11 11 10 9 7 7 7 8 11 9 8 7 5 2 4
10 10 8 7 7 7 8 8 9 10 10 10 10 10 14 16 8 2 12 7 7 4 4 5 5 11 9 10 10 14 8 5 9 4 5 5 5 5 4 6 6 5 4 3 4 4 6 9 11 11 11 11 11 12 12 12 12 11 11 11 11 11 11 10 10 10 9 8 9 9 8 9 9 9 9 9 9 9 9 10 10 10 11 10 10 10 8 8 9 8 6 7 7 6 4 2 6
8 8 10 9 8 8 7 7 9 9 13 10 7 14 20 7 12 8 7 8 6 2 2 8 10 14 16 13 7 3 1 5 7 6 5 5 5 4 6 7 6 7 5 6 7 6 7 11 11 11 11 11 10 11 11 12 11 11 11 11 11 10 11 11 10 10 9 9 9 9 8 8 8 8 8 8 8 9 9 9 10 10 10 10 9 10 10 9 8 9 6 10 10 6 5 4 6
9 8 7 9 8 4 7 8 8 12 12 14 7 8 14 17 12 15 8 5 7 4 8 13 8 9 9 9 8 5 2 1 4 6 7 5 4 3 5 7 6 6 8 7 7 6 7 10 11 11 11 11 11 10 11 11 11 11 11 10 11 12 11 11 11 11 11 10 10 9 9 8 8 8 8 8 8 8 9 9 9 9 10 10 10 10 11 11 8 7 9 10 7 4 4 5 5
7 7 6 7 9 8 9 10 11 12 1 10 7 9 11 12 10 8 4 6 6 7 11 9 13 14 10 5 10 9 8 6 4 5 5 6 4 4 5 7 8 9 9 8 7 8 8 10 11 10 9 9 9 9 8 9 9 9 10 10 10 11 11 12 12 12 12 11 11 10 10 9 9 8 8 8 8 8 8 9 9 9 8 9 10 10 10 10 10 9 8 8 3 3 3 4 5
9 10 6 8 6 6 8 9 12 12 5 3 7 11 9 11 12 13 16 14 6 6 13 14 11 15 6 2 5 5 11 11 11 11 9 7 6 7 7 7 8 9 10 8 7 7 10 10 9 8 7 7 7 7 7 7 8 9 9 9 10 10 11 12 12 11 11 11 11 11 11 10 10 9 8 8 8 8 8 8 8 9 8 8 9 8 8 9 9 9 7 5 7 4 3 3 5
8 8 6 8 10 7 9 12 13 15 3 10 10 7 10 12 11 9 11 9 8 14 23 11 3 7 4 10 9 7 8 9 10 9 7 6 6 6 5 8 9 7 9 8 7 7 7 9 8 7 6 6 6 6 6 7 8 9 9 10 10 11 11 11 10 10 11 11 11 11 11 11 11 10 9 8 8 8 8 8 8 8 9 8 8 8 8 8 8 8 8 6 5 4 4 4 5
7 6 5 7 7 11 11 10 11 11 9 13 5 8 7 8 11 7 8 10 10 14 12 13 7 10 9 11 9 5 5 7 9 8 7 6 8 9 4 7 8 9 9 8 7 7 6 9 9 8 7 7 7 8 9 9 10 10 10 10 10 10 10 10 10 10 11 11 11 11 11 11 11 11 10 9 8 8 7 7 7 8 8 8 8 8 8 7 7 7 7 6 5 4 4 5 6
6 6 6 9 8 9 10 10 12 5 15 9 11 19 15 5 6 9 11 11 13 9 6 7 4 9 8 9 6 3 6 7 8 8 7 5 6 6 7 6 7 8 8 8 4 6 7 7 11 9 9 9 9 9 10 10 10 10 10 10 11 11 10 10 9 11 11 12 12 11 11 10 10 10 9 9 8 8 7 6 6 7 8 8 8 7 7 7 7 7 6 6 5 4 4 4 6
6 7 8 9 10 9 7 7 17 10 13 13 6 12 13 1 7 10 9 9 11 11 5 8 4 6 9 7 5 5 7 8 7 7 7 6 7 7 7 5 7 6 10 8 5 5 8 8 7 9 9 10 9 10 10 10 10 9 9 10 11 11 11 11 12 11 11 11 12 11 11 11 9 8 8 8 8 7 7 7 6 6 6 7 7 6 7 7 6 6 5 5 5 4 3 3 4
7 6 7 9 10 5 12 10 8 6 10 10 6 7 8 6 7 10 8 10 14 6 4 3 4 0 5 6 5 5 7 7 7 7 8 8 8 8 7 8 7 7 6 7 7 7 7 6 5 5 8 11 10 10 9 9 9 8 8 8 9 9 9 9 9 10 11 12 12 11 11 10 9 8 7 6 6 7 6 5 5 5 5 5 6 6 6 6 6 5 5 4 5 4 3 3 4
4 7 7 8 11 6 8 9 7 9 7 6 5 8 9 3 4 6 8 12 10 6 3 2 2 6 9 8 5 6 6 6 8 7 7 8 7 9 9 7 7 8 6 7 6 5 5 5 4 5 7 6 7 8 9 8 6 6 6 7 8 9 10 11 12 11 9 6 11 11 10 9 10 10 7 4 4 4 5 4 4 5 5 5 4 5 5 5 5 5 5 4 4 4 3 4 4
6 7 4 5 7 8 5 5 4 6 5 6 5 4 7 9 4 3 7 13 6 3 3 4 3 4 4 8 5 6 8 8 8 8 9 9 9 9 9 8 7 7 6 7 5 4 4 5 5 3 4 4 4 4 4 4 5 4 5 5 7 9 11 10 12 9 13 3 11 9 10 9 11 12 8 3 1 1 4 6 2 5 5 4 4 4 4 4 5 5 5 4 4 4 4 5 5
5 6 3 4 4 4 4 6 2 2 1 3 3 2 3 12 4 4 6 8 7 4 5 4 3 1 5 3 9 10 10 9 9 9 8 10 11 9 9 8 6 6 5 6 5 4 4 5 5 5 4 5 4 4 3 3 3 4 4 3 2 4 6 9 10 10 10 11 10 10 11 6 7 6 9 7 7 1 3 5 5 4 5 4 3 3 3 3 4 4 3 4 4 4 4 5 6
10 7 4 3 4 3 1 4 2 2 3 2 2 5 2 5 12 9 12 4 8 10 9 5 5 3 7 10 12 12 10 8 9 8 6 5 5 5 6 5 5 5 4 5 4 4 5 4 4 5 4 4 3 2 2 2 2 3 4 3 3 2 7 8 8 6 11 9 9 8 7 5 5 1 6 2 1 3 4 4 4 4 5 5 4 3 2 3 3 3 3 4 4 4 4 5 8
6 1 5 2 3 3 3 7 3 4 3 3 1 1 8 10 7 15 6 4 12 11 10 8 10 9 11 11 11 10 9 6 6 8 6 6 4 5 2 6 4 3 6 5 3 4 4 3 5 4 4 3 2 2 3 3 6 9 9 6 5 5 7 9 5 4 7 4 10 7 4 2 3 4 2 4 2 2 2 3 4 3 4 4 4 4 4 5 5 5 5 4 6 4 4 3 2
3 4 2 4 4 6 5 6 4 4 5 3 3 4 8 10 8 5 6 5 9 10 7 8 11 10 9 10 9 9 8 4 5 6 5 5 4 5 4 7 7 3 5 4 4 5 2 3 4 4 2 5 5 4 3 6 7 4 6 8 3 7 8 5 6 4 6 7 7 8 7 6 4 1 3 3 1 1 2 3 5 4 5 4 4 5 5 5 7 7 6 6 5 6 3 1 1
3 2 4 5 10 8 9 7 7 6 3 3 1 6 15 4 9 11 7 7 5 6 7 6 10 12 10 11 10 9 9 7 4 7 6 4 5 5 3 5 4 3 4 3 4 4 3 3 3 3 4 3 4 3 5 7 4 3 3 5 5 3 5 5 7 4 6 5 5 5 7 7 7 3 7 10 3 3 3 6 6 5 7 7 5 5 6 7 8 7 7 6 3 2 1 1 1
3 3 3 7 9 6 4 6 7 8 9 6 6 7 7 9 9 8 9 7 6 2 3 8 11 11 11 10 10 8 8 10 8 5 7 6 6 3 4 3 3 2 3 3 3 4 3 3 3 4 4 4 5 4 5 5 1 4 4 4 7 3 5 3 4 3 5 4 4 5 8 7 7 6 6 6 6 5 4 2 1 1 2 2 3 2 1 2 3 1 2 2 1 2 0 1 1
7 4 8 10 11 9 7 10 9 2 8 3 11 6 11 8 9 12 8 6 3 3 4 9 11 12 11 11 10 9 8 8 7 6 6 6 6 4 3 4 3 2 2 4 3 4 4 6 4 3 2 6 5 4 4 6 2 0 2 3 5 4 4 4 3 4 4 6 4 6 6 7 5 5 4 5 4 3 2 3 3 3 3 2 1 2 3 4 1 1 1 0 2 3 2 3 1
4 7 5 8 12 10 12 3 3 8 11 12 7 8 10 11 11 9 9 6 2 3 8 10 11 12 12 11 10 9 9 8 7 7 6 7 6 5 4 3 2 2 2 4 3 3 4 3 4 3 4 4 4 7 4 2 2 2 0 1 3 4 4 4 3 3 5 6 6 4 6 6 6 5 5 6 2 3 2 2 2 3 3 2 1 2 2 3 3 0 0 1 2 3 5 4 3
6 8 9 9 12 12 16 19 20 19 17 14 14 14 13 14 13 7 12 9 8 7 8 8 10 11 11 11 9 8 7 6 6 6 5 5 5 5 4 4 3 1 4 3 3 3 3 4 2 3 3 4 2 5 3 2 2 2 1 2 2 3 4 4 2 3 3 6 6 5 5 5 6 5 5 5 4 5 6 4 1 2 3 4 4 2 4 2 4 3 3 1 2 1 4 5 2
6 7 10 9 9 14 14 10 10 11 10 12 13 14 14 14 12 11 14 13 11 10 9 8 10 10 9 9 8 8 7 7 6 6 4 4 4 4 4 3 3 3 4 3 2 2 4 3 2 5 3 6 4 5 4 2 2 3 2 2 2 3 4 4 2 2 5 4 4 4 4 6 6 5 6 7 4 5 5 4 3 3 5 5 5 4 3 3 2 4 4 4 2 2 1 5 1
13 8 8 8 10 11 10 12 11 11 9 11 13 14 14 15 16 14 12 11 12 12 11 10 9 10 8 8 8 8 7 6 6 6 5 4 5 5 4 3 4 4 3 4 2 3 4 2 4 4 3 4 3 4 2 2 1 2 1 1 2 4 3 6 2 3 4 4 3 3 4 4 5 5 5 6 8 5 5 3 5 4 5 4 5 5 5 4 3 4 4 4 3 2 2 5 4
8 11 9 10 11 11 10 10 11 11 11 12 13 12 13 13 10 11 10 11 11 11 12 11 9 8 10 9 7 8 7 7 7 5 4 4 4 3 3 2 2 3 4 3 2 4 3 2 3 2 4 3 1 3 3 2 1 2 1 2 2 3 5 5 2 3 4 4 3 3 3 3 4 4 4 6 6 5 3 5 4 4 5 5 4 4 4 4 2 1 1 3 3 2 4 0 2
7 10 11 11 10 11 11 11 11 9 10 10 10 11 9 8 10 10 11 10 8 9 9 9 8 9 8 9 9 7 7 7 7 5 5 6 3 3 3 1 2 2 2 2 4 3 3 3 3 3 2 2 2 3 2 3 3 1 1 2 1 1 4 5 1 2 3 4 3 4 3 3 4 4 5 5 6 5 7 6 5 4 4 3 2 3 4 4 4 3 3 3 3 3 3 3 2
6 7 10 11 10 10 8 8 4 8 9 9 8 13 11 9 12 12 11 8 7 6 8 6 5 6 9 6 7 7 6 6 7 6 6 4 4 3 4 1 2 2 3 4 5 3 4 3 2 3 2 2 2 3 3 2 1 1 1 2 2 2 3 4 2 2 4 4 4 6 4 3 3 3 4 5 6 6 5 5 5 4 4 5 2 2 3 3 2 4 5 4 3 4 4 3 2
7 8 2 10 9 9 8 10 8 6 6 6 1 6 7 11 11 10 11 9 10 8 7 7 5 6 6 4 5 6 4 5 7 6 4 4 4 3 4 3 2 1 1 3 4 4 3 3 1 3 1 2 2 2 4 2 3 2 2 2 0 1 3 4 3 1 3 2 5 5 3 3 3 3 3 4 4 4 4 4 4 4 6 7 3 3 5 3 1 3 5 5 3 4 4 3 3
2 7 5 2 6 6 9 8 7 10 4 7 2 6 8 10 12 11 10 10 9 9 7 7 6 5 5 4 2 5 4 4 5 3 5 6 6 5 3 3 4 2 2 3 4 4 4 3 2 2 2 1 1 2 5 2 2 1 2 3 0 1 1 3 4 7 1 4 5 5 3 3 4 5 4 2 4 4 3 4 7 6 8 7 6 5 6 3 5 4 4 5 5 3 2 2 3
6 4 2 2 7 8 10 5 8 6 7 7 0 8 8 10 10 11 9 10 10 9 9 8 8 5 7 5 3 3 4 3 6 6 4 5 7 6 4 4 3 3 3 3 4 5 4 4 2 2 2 1 3 1 3 1 2 2 1 4 2 1 2 2 3 4 4 3 4 4 5 5 4 5 5 4 4 5 4 4 3 5 6 6 6 7 7 3 4 5 5 6 6 6 5 1 2
5 4 2 4 7 8 8 6 4 1 4 7 8 8 9 9 11 10 10 10 10 7 9 8 8 8 7 5 6 4 4 6 5 4 6 4 7 5 4 5 4 3 3 3 4 4 5 4 2 2 1 1 2 2 2 4 2 3 3 1 2 3 2 1 3 5 5 4 4 4 3 3 3 5 5 5 3 6 4 5 5 5 5 6 6 8 6 3 4 5 6 5 5 5 6 6 3
2 3 1 6 9 6 7 6 4 9 2 4 4 8 9 10 10 9 9 8 7 8 7 6 7 6 6 6 5 7 5 1 4 4 9 6 6 6 5 4 4 4 3 4 4 4 4 4 4 2 1 2 2 1 2 4 2 3 1 1 3 1 2 2 2 3 2 3 4 3 3 3 4 3 3 2 2 4 4 4 5 6 4 6 5 6 7 6 5 3 4 6 3 5 5 4 4
1 2 6 9 12 6 10 5 10 7 4 6 11 11 11 10 10 9 9 7 6 7 8 7 5 7 4 5 5 6 6 4 6 3 10 5 8 6 4 5 4 4 3 4 4 3 3 3 4 3 2 2 2 2 1 2 3 2 2 1 3 1 1 1 2 1 4 1 3 4 3 2 3 2 1 2 2 3 3 4 4 6 3 4 5 5 6 7 7 6 4 7 5 2 6 3 4
3 3 5 8 4 11 10 12 8 7 6 8 9 9 11 11 10 9 7 6 7 6 7 7 7 5 3 2 3 4 8 7 7 6 8 8 7 7 5 5 4 4 3 3 4 4 3 4 3 3 2 2 2 2 2 3 2 3 2 3 2 4 5 2 2 3 1 3 2 3 4 2 3 2 1 3 4 5 3 4 3 5 5 2 3 4 4 4 5 6 4 5 9 5 3 4 3
5 2 7 7 8 10 14 14 10 11 4 4 10 12 11 11 10 9 8 4 8 9 6 8 8 8 7 5 5 7 7 7 8 3 3 5 9 8 6 5 5 5 4 4 4 4 3 3 4 3 2 2 1 1 1 2 2 2 2 2 0 2 2 1 1 1 4 4 2 3 4 5 0 2 0 4 6 4 2 3 4 4 5 4 2 2 3 2 3 5 5 2 6 4 2 5 5
7 3 6 4 7 8 10 11 12 10 5 7 9 11 11 10 10 10 9 7 7 7 6 7 6 7 9 7 7 7 7 8 8 5 4 3 5 6 5 5 5 6 5 4 4 4 3 3 2 3 2 2 1 1 0 1 2 2 2 1 1 2 2 1 2 2 0 2 2 2 2 5 4 4 2 6 7 7 2 3 2 2 3 4 3 4 4 2 2 5 4 6 4 8 1 4 6
4 4 4 3 7 10 8 9 9 12 2 2 6 10 10 11 11 10 8 7 5 7 8 8 7 7 7 8 9 7 8 7 6 6 6 4 4 7 6 4 5 5 5 5 4 4 3 3 2 2 2 2 2 2 1 1 1 1 0 2 2 2 4 1 1 3 1 1 1 2 2 4 5 2 4 5 6 5 4 1 2 4 4 4 4 4 5 5 2 4 7 5 7 7 5 3 4
5 2 2 5 3 4 6 6 5 7 3 4 2 9 7 9 7 6 8 9 8 8 8 9 7 7 6 10 8 7 8 7 6 6 6 5 5 4 6 5 5 4 5 5 5 4 3 3 3 3 2 2 0 1 1 0 1 2 1 1 2 3 3 3 5 3 0 1 2 1 2 2 4 3 2 5 7 4 4 5 2 4 3 4 5 1 1 4 6 6 6 6 6 7 7 5 3
4 7 6 5 5 10 7 6 12 13 5 5 8 4 7 4 8 5 6 10 9 7 9 6 9 10 8 9 7 6 9 8 7 7 5 5 5 4 6 7 5 5 4 5 5 5 4 4 4 3 3 2 2 2 2 1 0 1 0 1 3 1 2 3 1 1 0 0 2 2 2 0 4 3 4 4 4 5 3 3 4 2 3 1 3 4 5 5 6 6 8 7 7 5 8 4 1
3 1 4 5 7 11 12 5 4 4 2 4 3 4 4 5 5 9 5 5 8 8 9 9 8 9 8 8 8 5 8 7 8 6 6 5 4 4 4 8 6 6 5 3 5 4 3 4 4 4 3 3 2 2 2 2 1 1 1 1 1 1 1 2 1 0 1 1 1 1 0 1 1 3 5 2 3 4 3 3 3 3 2 1 6 5 4 3 6 6 5 5 7 7 7 7 6
6 5 2 6 2 8 13 5 5 4 2 3 4 2 5 4 5 8 7 8 8 2 4 10 7 8 8 10 9 7 10 7 7 6 6 6 5 4 3 4 7 6 6 4 5 4 4 4 4 4 3 3 3 2 3 2 1 2 2 1 1 1 2 1 1 2 2 1 2 2 1 1 1 2 3 2 2 3 3 1 3 3 4 4 4 3 3 5 4 4 4 4 4 5 6 6 7
5 6 5 3 2 6 13 15 10 3 5 3 2 9 2 4 6 3 7 8 8 7 3 6 3 8 6 11 9 10 11 8 7 7 6 6 5 4 3 4 4 7 7 7 4 4 4 4 4 4 3 3 2 2 3 3 2 2 2 1 1 1 2 1 1 1 2 2 3 0 1 2 0 1 4 1 1 4 2 1 2 3 2 4 3 4 3 4 4 2 3 4 3 4 5 6 5
2 6 7 5 7 4 19 11 9 9 6 2 2 2 2 2 6 5 5 9 8 8 7 8 6 8 4 1 9 7 12 9 11 8 7 6 5 5 3 2 4 7 6 6 7 5 3 3 4 4 3 3 2 3 2 3 3 2 2 1 1 1 2 2 2 1 2 1 5 3 2 2 2 1 2 3 2 5 2 1 2 1 3 2 2 1 3 2 2 1 3 3 1 1 2 3 4
9 5 1 1 2 3 9 11 8 7 4 5 7 6 4 7 6 2 4 1 7 6 5 5 5 8 8 4 8 7 9 6 12 8 7 7 5 4 3 3 3 6 5 5 6 6 5 3 3 4 4 2 2 3 3 2 2 3 2 2 2 2 1 1 1 0 1 2 2 2 1 2 3 2 2 2 3 3 2 2 1 2 2 3 1 1 2 3 3 3 3 1 0 2 1 3 3
4 4 7 4 2 4 4 6 9 5 1 9 13 8 7 3 4 6 4 3 6 8 7 5 7 5 7 3 7 7 8 8 10 8 9 7 6 5 4 3 5 4 4 4 5 7 6 4 3 3 3 3 3 3 4 3 2 2 2 2 2 2 1 1 1 2 2 2 2 1 2 2 3 3 2 2 1 1 3 2 2 0 3 1 1 1 2 2 3 1 1 1 2 3 1 3 3
4 6 4 5 5 6 6 7 3 4 1 12 10 9 4 4 5 6 5 5 7 7 7 7 10 9 5 7 5 8 8 9 9 11 10 9 6 6 4 4 4 5 3 4 2 5 6 6 4 3 3 3 2 2 2 2 2 2 2 2 2 2 1 1 2 1 1 1 1 2 2 2 2 3 3 2 3 3 2 1 4 1 4 1 1 1 1 3 1 2 3 3 3 3 4 2 2
7 3 6 8 5 4 2 4 2 2 3 15 19 13 6 2 4 8 7 7 6 8 7 7 7 6 5 9 5 7 1 7 12 13 10 7 6 5 5 5 5 5 4 3 3 1 2 7 5 3 2 2 1 3 2 2 2 2 1 3 2 1 1 2 2 2 1 1 0 1 1 2 2 3 3 4 3 4 2 2 1 2 0 3 1 2 3 3 2 2 2 1 3 3 3 4 2
4 3 7 5 1 2 4 2 2 5 4 9 12 14 5 5 4 9 9 8 9 7 10 10 10 6 1 9 6 6 4 8 13 11 10 8 6 6 5 5 5 4 5 4 4 2 1 3 2 3 3 3 4 3 2 2 2 2 2 2 2 1 1 1 1 2 1 0 1 2 1 1 1 1 2 3 2 4 3 3 5 2 2 4 3 3 0 3 3 1 1 1 1 2 1 0 2
5 6 2 2 8 2 1 2 2 1 1 4 4 5 4 5 5 10 11 9 6 10 11 9 8 6 4 3 7 9 6 10 10 10 10 8 7 6 4 5 4 4 4 4 4 4 2 2 3 5 4 5 3 3 2 2 1 2 2 2 2 2 1 2 2 2 1 1 1 2 2 2 2 1 2 0 1 1 2 3 3 1 4 1 2 4 3 4 2 2 1 0 2 3 3 2 2
9 4 2 6 2 6 2 1 4 2 4 2 5 4 6 4 6 9 7 7 9 10 9 8 8 8 3 5 7 7 7 10 11 10 10 9 7 5 4 4 4 4 4 3 3 2 2 3 2 1 1 4 5 3 3 3 3 2 3 3 2 3 3 1 1 2 2 2 2 1 1 1 2 2 2 2 2 3 3 3 3 4 2 4 2 2 3 2 1 3 1 1 2 2 3 4 2
2 5 7 3 3 6 2 3 2 2 3 2 0 4 5 6 5 5 8 9 7 6 8 8 8 5 2 6 8 9 8 6 8 11 10 8 7 6 5 5 5 5 5 3 4 4 2 4 2 3 1 3 1 3 3 2 2 2 1 1 1 1 2 3 3 2 2 2 2 2 2 2 2 1 2 2 1 2 2 3 3 3 3 2 3 3 4 5 2 2 2 4 3 0 0 1 1
7 2 4 6 2 5 2 2 2 2 3 1 2 2 9 4 3 6 5 7 7 5 10 9 5 5 7 6 9 8 7 7 10 11 10 9 7 7 7 6 6 5 6 5 4 3 2 1 2 2 3 2 4 3 2 2 2 2 2 2 2 2 2 3 1 1 1 0 2 3 3 3 4 3 3 2 2 2 2 3 3 2 3 3 3 4 3 4 5 5 3 2 3 3 2 3 4
5 8 6 5 2 0 4 3 0 1 1 1 3 1 6 7 2 6 6 5 3 5 7 3 6 8 4 9 9 8 7 3 5 9 9 8 7 7 6 6 7 6 6 5 6 4 4 4 3 2 1 2 1 1 1 2 3 2 1 1 2 2 3 4 3 3 2 2 2 2 2 2 2 2 2 2 3 3 3 3 3 4 3 5 5 4 4 3 4 4 4 3 2 3 5 4 4
12 6 6 5 4 3 3 1 3 2 0 4 3 10 4 7 5 3 7 9 1 5 5 7 5 5 7 8 9 9 5 5 7 8 8 8 8 8 7 6 8 6 5 7 6 5 6 4 4 2 3 2 3 3 3 2 2 2 2 2 2 2 2 2 2 2 1 1 1 2 2 1 1 0 2 2 2 3 3 4 4 5 5 5 5 5 4 5 4 4 4 5 5 4 5 6 6
1 3 5 6 5 2 5 1 4 2 3 1 2 2 4 4 5 10 9 5 2 4 5 6 5 7 8 9 8 7 6 5 4 6 9 7 6 7 6 5 8 8 7 6 5 4 5 5 4 6 5 4 5 4 4 3 2 2 3 3 3 2 3 3 3 3 3 3 2 2 2 3 2 2 2 2 3 4 4 5 6 6 6 4 6 6 6 5 5 4 6 6 5 5 4 4 5
6 6 4 4 7 4 3 1 1 3 3 3 2 2 5 7 5 7 8 2 5 5 8 3 4 9 8 8 7 7 7 4 3 4 8 7 5 7 6 5 4 6 7 4 5 3 4 3 7 8 5 4 4 5 6 4 4 4 3 3 2 2 3 2 2 2 2 2 3 3 3 3 3 3 4 4 5 5 3 3 4 4 3 4 5 6 7 7 6 6 6 5 6 5 6 6 5
Wind_Direction
249 225 230 221 229 241 231 204 234 190 241 241 259 239 246 225 247 233 255 95 270 54 42 49 41 37 44 81 92 78 48 62 7 308 71 112 114 79 94 110 93 69 74 84 118 120 80 66 62 63 61 57 57 57 53 50 48 46 44 42 39 38 33 31 29 25 19 16 15 12 6 6 9 7 10 6 4 360 356 356 1 2 4 359 356 353 348 352 349 335 344 4 9 37 52 64 62
231 226 220 214 222 233 216 198 236 219 208 249 242 253 256 252 226 244 217 97 105 355 32 56 70 66 65 82 100 89 56 52 60 79 82 91 104 84 84 101 109 112 110 55 62 44 65 67 64 60 60 60 59 58 57 52 49 48 47 41 38 37 35 31 24 25 19 14 8 8 3 1 2 9 8 6 6 4 359 358 359 0 5 357 353 350 346 350 342 352 337 11 11 35 45 68 171
246 212 206 215 231 233 245 199 230 232 223 226 235 235 239 247 243 238 15 81 96 85 84 73 87 79 107 129 48 41 80 47 69 89 99 149 95 57 88 104 106 108 118 112 103 67 85 75 71 69 65 64 62 63 59 53 47 43 41 38 35 32 31 27 24 16 17 12 8 358 360 356 360 0 3 5 3 4 5 3 359 360 3 9 357 349 343 345 338 4 17 31 353 36 44 39 265
289 288 245 186 204 220 239 198 239 241 235 240 246 231 253 243 191 329 78 91 72 134 126 173 112 25 61 70 95 72 66 58 36 65 104 73 75 126 125 103 115 125 147 173 117 98 72 78 74 71 69 66 65 60 58 51 46 44 41 39 34 34 29 26 20 14 10 7 1 357 355 355 354 354 357 357 360 0 4 6 3 2 6 7 358 346 352 351 355 6 34 12 31 30 29 315 271
263 253 251 194 236 190 235 233 234 232 247 253 264 21 358 23 96 93 92 45 99 113 206 90 89 81 61 53 32 60 114 74 49 63 89 85 111 120 128 122 121 129 128 112 106 91 84 80 76 72 74 72 66 62 59 54 51 50 46 41 38 36 33 27 20 17 10 6 358 353 350 348 351 352 350 352 352 356 358 1 4 5 3 2 2 349 352 16 355 23 358 33 29 357 333 269 273
245 255 231 250 219 210 205 237 229 243 246 257 321 35 42 20 58 61 40 74 57 44 45 64 81 64 58 48 37 69 292 179 102 69 102 87 118 144 116 129 134 147 130 117 96 85 88 84 80 76 72 73 70 66 58 55 50 47 48 40 36 36 31 28 23 19 15 7 5 356 350 348 347 347 350 349 351 351 354 357 356 2 2 358 359 1 5 354 7 8 16 48 22 1 302 290 289
225 227 204 214 270 288 254 225 234 236 303 39 357 31 51 68 66 79 3 94 49 69 46 77 87 107 88 107 66 48 36 85 89 80 92 142 158 190 185 153 133 115 104 101 102 99 97 91 83 80 79 78 75 72 69 64 55 51 51 47 39 35 31 26 20 19 15 9 3 1 0 356 349 347 346 349 350 351 355 355 355 352 1 356 3 2 4 1 359 7 34 31 55 25 300 320 312
242 262 165 223 218 240 251 267 254 248 103 38 50 33 34 54 47 46 39 25 341 19 36 29 75 85 75 124 114 67 66 69 102 112 129 149 184 197 193 111 119 110 105 103 102 109 105 97 95 91 89 85 80 75 68 66 61 60 56 50 41 36 30 24 16 12 13 10 1 360 360 358 352 351 348 344 346 350 354 356 351 351 351 358 3 5 1 3 4 358 38 24 47 39 337 322 316
230 245 266 218 239 200 228 234 248 254 237 129 75 57 18 62 51 71 75 47 20 37 20 354 177 70 104 91 86 92 85 103 113 124 134 165 202 197 224 127 111 115 111 108 112 115 110 109 104 101 88 76 66 54 57 60 59 58 55 47 39 32 30 22 14 10 6 3 4 359 357 355 353 349 347 342 341 344 349 353 349 348 352 355 359 3 359 1 4 7 7 21 33 12 24 343 322
235 227 216 262 231 227 229 221 238 228 239 41 52 40 53 17 65 59 62 58 31 41 48 19 52 116 132 101 101 80 109 125 129 131 146 179 207 209 135 89 118 110 109 117 125 116 120 118 106 92 83 74 67 67 61 57 53 49 42 38 38 31 27 23 18 11 7 2 355 357 354 352 352 349 345 345 341 340 343 347 348 345 349 354 1 354 358 3 11 13 15 8 4 8 355 347 334
232 181 260 231 236 251 247 235 230 205 70 71 43 1 9 43 115 83 87 74 50 65 43 279 85 110 112 81 80 106 107 131 137 141 166 142 111 103 97 91 76 101 103 107 122 117 123 113 101 92 80 72 74 76 75 69 63 53 41 35 30 25 20 19 17 14 6 360 355 350 350 350 345 344 342 345 346 343 343 344 343 345 350 354 0 4 345 2 11 8 7 359 356 1 350 335 321
249 223 187 242 249 238 236 358 334 68 60 89 79 64 330 250 17 68 69 79 63 53 1 256 185 140 104 117 115 125 138 148 129 121 125 136 121 104 104 98 101 109 129 150 155 155 132 131 102 97 88 82 79 77 75 68 61 50 39 34 29 21 15 13 14 10 7 354 350 349 343 338 335 331 335 344 347 348 352 352 344 340 352 357 357 2 360 356 3 5 8 349 347 342 355 327 315
242 289 304 320 279 256 360 328 31 350 83 59 71 102 188 316 104 91 95 90 105 98 268 23 133 313 96 98 122 130 126 129 134 142 151 138 130 118 111 111 121 117 91 102 100 89 84 84 110 106 115 101 88 82 72 68 60 53 49 41 35 28 16 7 14 4 7 351 346 344 340 324 317 315 320 332 354 352 357 352 345 336 347 359 2 359 2 353 356 356 3 347 343 345 337 333 310
332 356 335 294 294 297 30 324 23 342 48 69 34 35 23 360 74 111 115 83 109 154 203 222 151 97 110 114 132 131 142 149 143 157 149 131 126 123 119 134 120 100 103 99 97 92 95 99 106 129 158 125 118 98 86 75 65 65 55 42 34 27 17 4 10 5 354 350 346 342 335 322 302 295 286 306 329 355 342 336 337 335 338 354 6 360 2 359 352 343 345 347 337 333 322 306 307
67 26 358 290 304 326 46 355 36 292 16 20 47 18 99 325 54 122 75 98 97 171 103 69 90 201 150 142 176 150 145 180 154 169 141 132 129 128 132 99 104 121 116 118 131 136 127 131 104 83 61 59 66 99 111 81 66 61 52 39 35 27 16 5 5 13 357 12 356 337 327 308 287 273 278 263 266 309 351 331 35 335 336 345 360 358 350 350 349 347 342 345 327 299 303 296 290
61 70 318 335 309 350 346 308 330 98 300 323 18 142 224 133 189 93 80 109 129 136 129 71 40 31 124 90 131 146 152 166 165 158 150 144 133 135 113 121 107 92 91 87 79 84 66 76 86 72 61 54 73 65 75 91 114 18 15 26 47 29 19 356 14 16 358 1 1 348 340 333 297 293 214 217 207 5 0 350 355 327 321 338 350 348 348 332 336 344 346 312 305 299 289 291 295
150 156 183 12 314 344 304 278 297 143 180 281 42 1 139 212 178 75 45 63 109 86 71 78 88 90 101 118 126 139 152 156 174 131 119 127 124 130 113 119 122 124 105 91 84 70 68 64 93 98 88 105 88 85 90 101 63 182 226 232 301 9 353 10 3 7 16 348 8 348 351 354 306 329 179 3 352 79 24 342 316 318 307 319 327 320 317 298 293 303 313 298 287 307 313 289 276
13 107 103 88 343 291 290 268 273 15 209 152 69 97 40 302 41 88 62 83 70 71 90 85 83 81 100 110 130 137 146 161 133 149 149 135 148 102 148 92 53 114 128 122 122 100 96 75 58 59 78 85 64 56 52 10 28 21 347 344 8 343 2 356 341 19 31 344 9 348 325 332 298 297 60 28 30 115 198 267 302 292 299 316 311 307 294 298 290 283 278 286 299 305 294 276 346
144 107 54 145 187 235 259 275 294 165 197 229 200 87 59 282 108 150 141 95 95 97 79 103 97 101 109 123 127 145 126 108 155 128 129 147 140 127 121 129 172 178 99 117 110 96 94 83 81 87 61 37 46 47 47 38 38 18 353 317 18 340 336 6 328 345 44 4 14 357 330 316 283 276 45 55 328 247 232 219 267 286 294 299 305 281 280 286 287 282 284 283 298 292 306 309 222
58 184 139 219 198 219 229 244 217 227 196 223 163 176 189 147 69 79 71 111 79 104 125 123 117 123 132 132 142 141 141 140 150 143 126 234 103 118 120 111 109 134 117 90 101 109 80 85 100 94 64 61 63 29 56 50 344 33 343 321 3 356 321 19 328 340 59 17 6 354 328 338 350 2 22 6 335 54 167 227 264 296 302 286 267 271 242 253 266 274 270 285 286 46 43 223 308
131 144 202 176 177 197 230 220 204 216 146 149 63 314 86 75 90 87 109 71 70 168 134 136 131 135 133 138 139 143 142 149 173 133 155 136 113 131 124 127 119 118 103 96 105 79 101 119 99 59 64 44 47 46 56 78 37 1 329 341 340 333 330 11 307 329 66 32 12 359 347 339 355 0 3 19 355 40 18 358 318 193 250 306 359 272 265 234 225 33 47 277 353 86 11 347 46
148 185 144 154 172 191 201 230 217 167 39 96 166 192 88 94 86 93 81 107 112 159 157 123 131 136 142 150 146 147 146 139 143 140 122 128 129 126 110 97 100 84 107 125 103 138 103 78 59 81 78 65 37 26 56 85 24 26 338 343 336 333 356 303 313 335 58 34 13 11 353 340 341 11 3 348 18 4 357 25 349 355 321 132 237 291 345 333 179 113 233 7 269 112 19 307 266
153 169 159 177 180 187 185 206 141 173 160 214 135 103 103 89 89 106 117 115 167 170 134 138 133 142 148 143 145 142 144 147 148 134 146 126 145 153 143 116 126 132 114 86 99 64 75 64 64 56 66 81 61 66 22 81 110 122 241 336 330 349 318 312 338 355 50 43 12 3 7 347 334 12 356 345 5 355 326 73 360 358 338 329 82 330 87 313 8 49 61 289 249 150 146 234 220
244 151 164 174 157 119 163 189 196 198 173 143 147 133 103 96 96 90 94 119 127 130 128 131 130 135 137 139 135 139 141 133 133 146 152 138 151 142 124 131 118 74 88 69 87 95 81 88 71 54 68 94 90 89 144 110 104 35 25 350 315 338 307 293 356 31 53 53 17 359 10 356 342 10 349 344 339 15 339 19 347 13 356 352 349 3 16 350 14 19 316 286 280 115 152 217 207
200 147 156 137 141 137 180 184 134 120 97 112 114 109 104 108 111 117 108 134 141 136 133 140 137 130 133 132 131 132 133 143 152 135 141 148 143 135 137 139 125 104 98 109 101 111 102 89 98 59 24 45 59 80 70 47 70 88 357 322 318 336 284 295 12 350 55 59 30 2 13 5 349 7 353 349 352 9 331 339 338 16 42 3 338 11 8 7 355 26 341 330 337 345 52 18 321
254 116 145 138 123 119 123 122 125 106 105 102 102 95 103 107 107 99 123 114 125 136 139 134 131 126 130 133 140 144 145 153 143 143 160 156 152 150 156 150 151 126 126 133 167 109 101 67 65 58 49 37 50 106 125 79 42 86 125 321 241 281 292 300 339 44 80 59 38 15 23 19 349 8 356 342 354 340 326 354 358 25 36 359 358 0 355 353 32 3 344 307 336 334 321 165 230
159 141 128 124 123 124 114 106 102 110 109 113 113 121 119 136 118 100 112 129 132 142 135 129 127 144 148 143 148 146 154 157 155 157 168 148 164 158 165 175 131 133 132 156 120 116 106 103 74 59 52 51 336 84 105 109 113 65 63 214 270 353 303 308 13 29 83 78 43 27 23 31 6 17 1 339 344 318 342 344 21 8 46 2 5 358 328 342 58 256 228 296 304 345 302 345 239
145 114 116 104 97 91 101 100 119 136 120 118 118 125 135 103 97 114 121 125 139 125 126 132 155 145 153 139 159 150 164 163 148 170 175 148 188 172 144 205 153 130 153 139 102 95 111 79 93 81 64 63 16 76 53 69 55 2 139 283 3 46 311 305 9 14 88 85 70 37 36 25 8 44 358 354 336 343 7 349 357 13 34 7 11 346 357 340 358 341 322 331 322 298 281 297 44
74 120 120 133 136 122 106 103 116 107 118 134 131 119 101 104 100 117 115 135 128 123 124 139 163 133 127 159 139 164 163 155 136 167 189 166 183 163 179 153 140 131 136 173 102 120 114 136 126 87 84 41 72 68 91 61 75 318 313 303 358 14 296 309 331 310 81 112 73 58 5 32 41 27 9 352 344 4 356 349 359 2 1 333 326 9 348 342 348 355 346 334 344 334 316 332 15
25 335 143 123 107 101 113 123 109 98 49 77 228 104 86 103 119 123 144 143 141 145 147 160 162 143 128 161 162 133 153 142 166 165 160 158 169 152 166 147 135 230 70 93 114 132 135 130 138 130 72 54 58 88 86 41 28 344 324 285 299 66 312 311 311 330 103 122 95 76 10 26 45 13 55 355 346 352 343 348 344 4 355 318 331 27 338 299 14 27 354 323 358 324 334 346 345
169 250 295 123 124 109 128 96 106 90 99 91 106 95 104 119 125 143 148 143 152 148 161 147 146 163 135 164 171 146 143 197 137 160 173 167 156 156 156 142 156 196 129 111 135 142 132 142 154 123 83 100 131 104 92 141 229 82 325 303 190 341 258 305 335 325 336 59 86 84 48 8 51 22 25 14 352 339 342 7 6 17 346 335 10 347 321 345 25 4 349 333 319 304 292 343 350
107 354 281 130 96 91 86 121 121 111 169 167 246 96 116 123 137 148 155 155 167 160 158 156 159 163 141 151 181 144 162 159 148 178 163 175 138 132 141 135 158 157 138 135 144 143 158 145 172 121 133 106 104 87 114 79 119 69 267 300 350 355 319 330 330 308 359 48 71 67 76 19 24 52 26 8 1 318 12 20 9 9 353 348 350 342 312 2 24 8 353 331 336 333 316 338 18
150 193 170 136 118 124 121 84 69 121 190 148 193 105 131 124 137 150 164 165 189 133 152 144 166 145 153 177 161 187 143 168 158 147 164 121 113 123 133 147 165 147 136 160 142 158 162 145 134 111 164 97 105 113 118 85 331 201 211 138 325 321 334 303 23 342 357 17 32 50 66 57 15 55 48 10 16 343 35 16 1 8 355 349 357 333 313 18 27 29 336 334 332 334 324 354 16
171 107 137 98 100 164 113 130 164 192 292 153 172 109 98 134 141 153 165 171 190 127 129 157 122 155 164 157 187 137 132 174 136 140 128 110 130 134 149 157 146 155 144 151 154 163 172 151 157 154 152 137 118 95 127 133 206 260 143 156 331 293 339 360 17 324 22 31 347 60 65 65 41 46 60 82 7 4 35 26 360 347 358 358 353 334 352 3 18 19 336 308 329 313 317 348 7
28 226 139 149 157 140 126 141 37 38 189 205 109 115 129 133 141 157 169 155 162 138 144 142 140 139 171 157 138 157 144 157 113 86 114 119 125 144 139 142 155 147 162 162 149 164 157 155 141 152 177 152 134 139 260 164 194 304 279 108 196 269 240 95 356 277 37 346 30 351 60 77 85 349 107 116 79 42 39 46 5 344 349 12 343 0 357 356 357 348 346 315 302 317 293 11 11
155 150 105 139 169 137 146 107 151 204 211 144 128 119 132 140 140 140 154 172 140 89 101 140 128 104 92 91 138 97 123 107 93 111 127 164 147 144 161 149 150 160 164 170 156 158 162 149 151 146 183 133 160 147 206 230 162 196 42 52 33 352 359 322 43 341 338 58 54 12 355 358 105 312 124 83 97 60 44 50 19 355 339 4 22 359 357 347 340 324 317 335 313 316 18 14 11
257 272 242 130 129 107 117 133 173 177 232 142 131 130 130 134 136 145 136 137 111 145 157 167 134 143 136 168 84 71 80 107 106 91 56 60 127 145 153 156 164 163 172 157 166 150 172 169 145 165 157 161 291 178 261 349 24 4 112 54 248 227 205 314 38 353 343 63 10 30 342 317 40 175 50 92 79 81 81 74 64 355 334 338 352 13 331 344 318 314 324 336 314 332 30 17 1
20 100 322 63 78 92 108 134 159 177 220 131 131 123 116 121 137 138 136 168 147 136 149 124 104 149 137 126 121 115 108 108 112 114 119 158 132 128 137 148 165 163 163 168 162 155 172 156 162 138 155 157 142 231 137 77 304 29 5 158 354 156 325 28 354 82 235 56 16 356 32 309 322 1 35 80 71 36 21 104 100 61 336 333 329 15 330 318 353 336 347 343 1 344 342 47 11
347 296 220 38 74 89 111 136 133 96 139 42 110 107 116 129 125 137 158 158 131 143 136 139 136 143 136 134 117 132 120 104 119 128 136 135 140 153 150 153 159 165 159 168 150 162 162 160 134 141 146 156 188 202 202 142 150 186 62 355 30 344 128 248 60 53 353 95 35 313 33 317 318 20 331 107 83 71 0 70 106 94 356 322 314 55 335 334 22 3 353 22 352 357 336 70 40
169 22 56 63 37 111 93 89 118 130 128 86 131 101 101 106 137 140 163 129 144 122 124 140 146 103 140 137 126 138 136 130 133 143 136 136 154 152 138 156 149 158 160 158 163 158 156 151 160 156 163 181 19 111 230 46 354 41 336 25 2 5 3 348 84 322 285 268 143 285 41 280 298 328 358 57 89 79 38 352 60 103 73 325 331 85 299 24 5 7 3 5 26 357 353 344 40
123 143 175 100 98 87 62 42 60 19 67 211 203 125 120 113 131 141 111 127 124 128 133 109 111 119 94 114 134 143 133 138 139 128 133 137 151 155 159 140 143 161 164 162 158 168 164 167 159 163 163 163 183 189 175 217 115 339 150 55 52 353 268 199 208 185 161 234 123 177 228 17 309 310 341 63 70 98 90 28 346 114 123 242 330 0 16 44 31 7 7 11 16 8 343 322 1
285 100 47 39 104 136 108 69 351 90 29 267 7 133 124 186 157 123 132 171 146 142 142 141 130 141 161 139 137 140 139 134 142 140 137 136 120 120 127 135 148 169 166 156 149 161 152 154 155 163 169 158 178 191 171 141 203 287 44 320 277 270 354 353 20 348 178 155 342 43 26 328 351 318 323 64 76 91 96 102 2 358 28 320 51 20 6 10 58 24 12 20 357 348 356 329 5
294 84 332 137 84 110 119 139 157 126 199 250 255 346 111 132 129 142 150 117 88 22 144 144 147 165 151 144 153 162 135 134 124 128 133 126 119 116 116 142 164 162 153 153 145 157 161 140 166 158 164 155 186 193 162 151 194 225 259 241 307 339 317 251 199 165 179 217 171 138 140 295 305 308 289 58 102 79 96 87 83 15 3 8 86 24 35 24 37 53 350 44 359 358 355 352 359
321 86 359 29 108 105 113 66 351 176 188 10 327 96 314 128 83 105 125 122 123 136 136 110 158 143 104 151 154 139 140 145 141 143 133 126 137 140 147 133 200 134 153 145 135 149 159 150 154 162 164 171 173 168 181 163 225 206 195 246 231 288 271 332 310 263 141 162 83 185 199 186 205 310 304 77 11 111 103 83 87 98 34 18 24 72 33 73 34 38 54 29 13 12 346 357 349
206 85 281 318 11 79 127 133 169 245 139 73 319 336 74 276 124 138 154 134 137 125 116 113 109 109 95 304 141 136 132 151 144 141 133 134 134 123 132 132 123 131 125 135 162 149 146 157 156 160 172 168 163 186 191 178 195 220 214 239 300 240 278 172 257 345 66 14 103 242 213 137 161 287 294 313 257 107 124 162 101 105 107 67 30 48 91 98 150 191 117 96 359 67 323 356 353
60 309 74 343 192 263 134 118 76 301 94 145 240 191 112 320 61 208 206 121 123 107 105 138 160 118 123 115 84 125 121 131 120 133 136 129 126 119 97 90 113 104 123 143 151 141 156 164 171 168 170 183 181 190 198 211 207 204 187 217 255 257 229 312 4 138 228 173 185 186 93 152 159 220 219 282 337 103 60 45 149 152 116 116 294 199 130 118 52 37 49 101 209 149 155 33 335
2 303 277 226 293 5 5 117 160 238 114 182 193 132 121 191 122 261 139 78 121 129 105 92 98 99 103 95 154 179 123 146 129 136 130 127 120 110 121 107 99 117 119 159 149 153 151 160 165 185 185 197 183 196 205 214 204 232 218 216 257 269 291 270 196 215 220 181 205 189 174 180 147 196 146 270 293 222 188 149 358 90 116 111 169 96 326 105 112 190 211 181 57 36 11 100 11
314 272 301 33 19 14 18 342 37 108 45 113 137 111 106 165 177 215 94 123 121 113 107 126 131 140 106 166 140 98 125 135 154 144 128 122 121 125 125 117 123 124 147 130 195 147 152 156 155 197 188 209 198 216 200 225 237 220 276 285 237 259 274 273 258 270 235 252 151 178 153 180 180 183 188 196 197 275 106 112 185 282 102 121 17 298 131 30 102 90 51 24 26 29 6 40 80
228 238 66 44 356 328 222 105 253 175 91 119 145 134 62 343 283 129 142 102 90 106 124 125 95 92 131 69 93 81 339 119 93 108 123 131 133 130 142 127 125 130 147 161 141 82 123 136 161 170 188 192 110 239 193 235 268 283 139 255 297 349 312 289 316 305 293 322 185 184 178 195 183 188 207 213 178 211 139 229 304 146 50 102 146 312 2 125 23 332 105 46 95 40 16 347 351
268 228 123 138 90 283 306 30 32 1 88 120 127 104 116 139 248 122 123 101 83 76 73 67 61 56 129 130 136 127 165 116 130 129 129 136 144 143 131 141 135 143 151 153 128 123 228 122 153 167 181 190 154 206 215 208 210 223 275 296 286 317 279 297 254 257 300 61 160 225 203 178 203 182 215 215 221 157 185 184 228 171 213 155 186 113 28 292 150 300 117 117 72 145 226 43 336
336 9 233 212 153 99 302 321 352 17 157 120 97 178 104 146 98 120 98 96 116 115 95 90 107 119 28 106 159 147 164 135 113 116 122 126 120 120 130 129 129 142 138 148 132 190 143 125 174 160 207 164 170 184 188 204 231 246 218 210 230 195 272 257 214 185 181 227 201 268 213 204 187 199 234 273 166 181 175 195 255 220 194 277 169 156 191 234 154 156 211 146 204 185 198 202 225
312 314 351 89 277 182 306 47 340 346 341 287 36 76 136 113 120 95 111 122 117 117 109 136 137 92 121 88 34 62 76 99 119 126 122 114 109 108 108 112 131 128 119 124 128 102 162 172 104 75 109 140 168 175 190 197 209 218 199 197 203 211 185 193 234 239 224 196 242 271 305 213 211 190 199 207 198 189 192 209 204 238 221 192 214 187 159 249 175 160 219 214 254 215 179 221 175
78 13 307 48 157 293 84 158 299 18 263 65 202 78 88 150 129 114 140 141 122 139 107 128 106 79 114 66 87 72 60 57 115 115 118 122 123 125 127 138 134 130 146 144 140 169 156 96 189 143 175 110 214 166 165 192 175 170 202 215 192 302 203 207 209 234 219 184 187 196 227 241 260 295 254 218 229 194 194 208 233 224 218 250 209 205 187 181 235 278 188 215 239 213 100 350 281
279 142 259 350 73 339 336 318 141 265 312 79 273 159 159 141 133 170 118 152 124 156 139 121 106 155 136 109 82 68 55 60 94 115 130 128 133 143 144 146 143 160 146 159 141 115 131 107 148 175 167 177 166 183 174 168 177 174 194 194 202 205 258 299 242 212 132 17 209 199 202 206 213 210 205 204 187 227 211 228 215 236 216 215 248 238 220 197 188 194 234 211 211 218 187 202 228
296 336 56 277 78 235 20 316 283 275 9 31 180 62 80 108 189 169 130 130 127 154 130 127 111 136 132 115 95 91 100 95 114 121 123 132 145 146 140 156 147 151 146 162 144 152 151 192 168 190 156 152 83 85 131 162 169 228 211 204 210 200 209 216 219 192 167 211 235 218 220 212 206 207 213 203 183 213 208 224 204 221 214 206 205 230 245 251 203 184 201 244 257 220 203 218 224
340 318 219 70 165 136 140 257 316 333 2 274 92 114 57 140 128 166 157 141 165 118 137 127 160 124 120 124 128 126 144 177 154 141 138 139 147 151 151 156 146 158 167 148 158 168 169 179 176 196 182 167 183 176 157 211 210 172 214 204 224 252 262 319 349 319 256 259 271 304 298 303 292 270 222 226 206 210 212 206 215 214 215 205 210 206 214 245 240 195 195 203 217 234 217 207 214
229 328 333 11 324 119 264 209 275 328 335 31 334 37 72 67 55 79 91 96 169 147 146 113 124 134 121 100 105 100 96 51 59 108 120 119 129 132 140 197 156 170 163 153 163 180 177 176 196 185 194 193 183 190 180 187 202 204 203 206 217 218 239 218 224 224 218 213 229 220 236 230 234 238 244 271 250 229 228 207 223 215 224 210 196 196 192 213 240 217 208 208 207 224 256 241 205
351 338 52 241 233 259 251 267 98 278 306 42 272 95 114 65 22 74 87 310 113 260 126 131 114 103 87 97 100 128 110 110 93 114 126 137 134 137 152 210 172 152 134 155 156 203 205 184 209 185 190 201 194 186 186 184 192 189 197 229 229 219 224 230 247 259 245 261 248 221 216 225 229 237 235 228 240 252 245 248 265 264 243 234 210 207 190 189 212 240 242 204 208 212 218 256 261